Location: Hurecourt
(47.9030°N, 6.0653°E)
Time: 20:50:45
(UTC+00:00)

Meteor 1-5 Rocket - Pass Details

Date: 14 July 2020
Orbit: 789 x 915 km, 81.2° (Epoch: 14 August)

Event Time Altitude Azimuth Distance (km) Brightness Sun altitude
Exits shadow 01:55:51 20° 203° (SSW) 1,873 5.4 -14.2°
Maximum altitude 01:59:50 70° 283° (WNW) 936 4.3 -13.9°
Drops below altitude 10° 02:05:43 10° 8° (N) 2,581 7.8 -13.3°
Sets 02:08:14 0° 11° (N) 3,539 8.7 -13.1°
